Unsubscribe Automatically:

[TLELIST] 0 HST 1 20580U 90037B 26266.29559880 .00004700 00000-0 14166-3 0 9994 2 20580 28.4728 129.5255 0001700 145.3004 214.7704 15.31726845803628 0 ISS (ZARYA) 1 25544U 98067A 26266.17434351 .00008083 00000-0 15342-3 0 9997 2 25544 51.6317 175.1352 0004730 170.7326 189.3751 15.49240021586943 0 CXO 1 25867U 99040B 26267.22283988 .00001017 00000-0 00000-0 0 9994 2 25867 57.5064 114.1177 7686103 309.2542 0.4828 0.37800426 17690